AC2JK-WX Weather Reports


Display with metric or nautical units.
time (UTC)temp
F
wind
direction
speed
MPH
gust
MPH
rain 1hr
in
rain 24hr
in
rain mn
in
humidity
%
barometer
mb
20260510165210 57 245 6.0 8.0 0.00 0.00 0.01 52 1017.0
20260510164709 57 245 4.0 4.0 0.00 0.00 0.01 53 1017.0
20260510164209 57 245 2.0 2.0 0.00 0.00 0.01 48 1017.0
20260510163709 57 245 3.0 5.0 0.00 0.00 0.01 51 1017.0
20260510163209 57 245 1.0 6.0 0.00 0.00 0.01 48 1017.0
20260510162709 56 245 6.0 6.0 0.00 0.00 0.01 52 1017.0
20260510162209 56 245 5.0 7.0 0.00 0.00 0.01 43 1017.0
20260510161709 57 245 3.0 7.0 0.00 0.00 0.01 42 1017.0
20260510161210 56 245 2.0 6.0 0.00 0.00 0.01 44 1017.0
20260510160709 57 245 4.0 5.0 0.00 0.00 0.01 42 1017.0
20260510160212 56 245 5.0 5.0 0.00 0.00 0.01 43 1017.0
20260510155709 57 245 2.0 3.0 0.00 0.00 0.01 44 1017.0
20260510155210 56 245 4.0 4.0 0.00 0.00 0.01 46 1017.0
20260510154709 56 245 4.0 4.0 0.00 0.00 0.01 45 1017.0
20260510154209 56 245 1.0 4.0 0.00 0.00 0.01 47 1017.0
20260510153710 55 245 4.0 5.0 0.00 0.00 0.01 45 1017.0
20260510153209 54 245 2.0 5.0 0.00 0.00 0.01 47 1017.0
20260510152709 55 245 1.0 3.0 0.00 0.00 0.01 46 1017.0
20260510152209 54 245 2.0 3.0 0.00 0.00 0.01 45 1017.0
20260510151709 54 245 2.0 4.0 0.00 0.00 0.01 45 1017.0
20260510151209 53 245 6.0 8.0 0.00 0.00 0.01 47 1017.0
20260510150709 53 245 4.0 8.0 0.00 0.00 0.01 44 1017.0
20260510150209 53 245 3.0 9.0 0.00 0.00 0.01 45 1017.0
20260510145710 53 245 3.0 5.0 0.00 0.00 0.01 47 1017.0
20260510145210 52 245 4.0 5.0 0.00 0.00 0.01 49 1017.0
20260510144709 52 245 5.0 5.0 0.00 0.00 0.01 49 1017.0
20260510144209 52 245 4.0 4.0 0.00 0.00 0.01 51 1017.0
20260510143709 51 245 1.0 7.0 0.00 0.00 0.01 50 1016.0
20260510143209 51 245 2.0 5.0 0.00 0.00 0.01 52 1016.0
20260510142711 51 245 0.0 8.0 0.00 0.00 0.01 52 1016.0
20260510141709 51 245 2.0 8.0 0.00 0.00 0.01 51 1016.0
20260510141209 51 245 6.0 7.0 0.00 0.00 0.01 53 1016.0
20260510140710 50 245 2.0 8.0 0.00 0.00 0.01 53 1016.0
20260510140210 50 245 3.0 6.0 0.00 0.00 0.01 53 1016.0
20260510135709 49 245 4.0 4.0 0.00 0.00 0.01 53 1016.0
20260510135209 49 245 5.0 9.0 0.00 0.00 0.01 53 1016.0
20260510134709 49 245 4.0 6.0 0.00 0.00 0.01 53 1016.0
20260510134209 49 245 1.0 3.0 0.00 0.00 0.01 54 1016.0
20260510133709 49 245 4.0 4.0 0.00 0.00 0.01 57 1016.0
20260510133209 49 245 5.0 5.0 0.00 0.00 0.01 56 1015.0
20260510132709 49 245 6.0 7.0 0.00 0.00 0.01 56 1015.0
20260510132214 49 245 3.0 6.0 0.00 0.00 0.01 57 1015.0
20260510131710 49 245 4.0 6.0 0.00 0.00 0.01 58 1015.0
20260510131209 48 245 3.0 5.0 0.00 0.00 0.01 59 1015.0
20260510130710 48 245 3.0 7.0 0.00 0.00 0.01 59 1015.0
20260510130209 48 245 2.0 5.0 0.00 0.00 0.01 59 1015.0
20260510125709 48 245 3.0 5.0 0.00 0.00 0.01 59 1015.0
20260510125209 48 245 0.0 5.0 0.00 0.00 0.01 61 1015.0
20260510124709 47 245 6.0 8.0 0.00 0.00 0.01 60 1015.0
20260510124210 47 245 2.0 3.0 0.00 0.00 0.01 62 1015.0
20260510123709 47 245 3.0 8.0 0.00 0.00 0.01 62 1015.0
20260510123209 47 245 4.0 5.0 0.00 0.00 0.01 63 1015.0
20260510122709 47 245 2.0 6.0 0.00 0.00 0.01 63 1015.0
20260510122210 46 245 4.0 6.0 0.00 0.00 0.01 63 1015.0
20260510121709 46 245 3.0 3.0 0.00 0.00 0.01 64 1015.0
20260510121209 46 245 1.0 4.0 0.00 0.00 0.01 64 1015.0
20260510120709 46 245 3.0 5.0 0.00 0.00 0.01 65 1014.0
20260510120209 46 245 1.0 2.0 0.00 0.00 0.01 67 1014.0
20260510115709 46 245 1.0 3.0 0.00 0.00 0.01 67 1014.0
20260510115210 46 245 2.0 2.0 0.00 0.00 0.01 67 1014.0
20260510114710 46 245 2.0 3.0 0.00 0.00 0.01 68 1014.0
20260510114210 46 245 0.0 2.0 0.00 0.00 0.01 68 1014.0
20260510113709 46 245 1.0 3.0 0.00 0.00 0.01 68 1014.0
20260510113209 45 245 3.0 5.0 0.00 0.00 0.01 69 1014.0
20260510112709 45 245 1.0 3.0 0.00 0.00 0.01 68 1014.0
20260510112209 46 245 0.0 4.0 0.00 0.00 0.01 69 1014.0
20260510111709 46 245 1.0 3.0 0.00 0.00 0.01 68 1014.0
20260510111209 45 245 0.0 3.0 0.00 0.00 0.01 69 1014.0
20260510110709 45 245 1.0 2.0 0.00 0.00 0.01 71 1014.0
20260510110209 45 245 2.0 2.0 0.00 0.00 0.01 70 1013.0
20260510105709 45 245 1.0 2.0 0.00 0.00 0.01 71 1013.0
20260510105210 45 245 2.0 3.0 0.00 0.00 0.01 70 1013.0
20260510104712 45 245 0.0 2.0 0.00 0.00 0.01 71 1013.0
20260510104210 45 245 1.0 2.0 0.00 0.00 0.01 70 1013.0
20260510103709 45 245 0.0 1.0 0.00 0.00 0.01 71 1013.0
20260510103209 46 245 1.0 1.0 0.00 0.00 0.01 71 1013.0
20260510102709 46 245 0.0 0.0 0.00 0.00 0.01 70 1013.0
20260510102210 46 245 2.0 2.0 0.00 0.00 0.01 69 1013.0
20260510101709 46 245 0.0 1.0 0.00 0.00 0.01 69 1012.0
20260510101209 46 245 0.0 3.0 0.00 0.00 0.01 69 1012.0
20260510100710 46 245 0.0 3.0 0.00 0.00 0.01 70 1012.0
20260510100209 46 245 1.0 3.0 0.00 0.00 0.01 70 1012.0
20260510095709 46 245 3.0 4.0 0.00 0.00 0.01 70 1012.0
20260510095210 46 245 2.0 2.0 0.01 0.00 0.01 72 1012.0
20260510094710 46 245 0.0 3.0 0.01 0.00 0.01 72 1012.0
20260510094209 46 245 2.0 2.0 0.01 0.00 0.01 72 1012.0
20260510093709 46 245 2.0 4.0 0.01 0.00 0.01 73 1012.0
20260510093209 47 245 2.0 2.0 0.01 0.00 0.01 74 1012.0
20260510092709 46 245 4.0 4.0 0.01 0.00 0.01 75 1012.0
20260510092209 46 245 0.0 4.0 0.01 0.00 0.01 76 1012.0
20260510091709 46 245 3.0 3.0 0.01 0.00 0.01 76 1011.0
20260510091209 46 245 0.0 0.0 0.00 0.00 0.00 78 1011.0
20260510090709 46 245 0.0 1.0 0.00 0.00 0.00 77 1012.0
20260510090209 47 245 1.0 1.0 0.00 0.00 0.00 76 1011.0
20260510085709 47 245 1.0 2.0 0.00 0.00 0.00 76 1012.0
20260510085209 47 245 1.0 1.0 0.00 0.00 0.00 76 1011.0
20260510084709 47 245 0.0 1.0 0.00 0.00 0.00 76 1011.0
20260510084209 47 245 1.0 2.0 0.00 0.00 0.00 72 1011.0
20260510083709 48 245 2.0 2.0 0.00 0.00 0.00 72 1011.0
20260510083209 48 245 0.0 1.0 0.00 0.00 0.00 71 1011.0
20260510082709 48 245 1.0 3.0 0.00 0.00 0.00 70 1011.0
20260510082209 49 245 2.0 2.0 0.00 0.00 0.00 73 1011.0
20260510081710 49 245 1.0 2.0 0.00 0.00 0.00 69 1011.0
20260510081209 49 245 1.0 6.0 0.00 0.00 0.00 69 1011.0
20260510080709 49 245 3.0 3.0 0.00 0.00 0.00 73 1011.0
20260510080209 49 245 0.0 2.0 0.00 0.00 0.00 73 1011.0
20260510075709 49 245 0.0 2.0 0.00 0.00 0.00 74 1011.0
20260510075211 49 245 0.0 1.0 0.00 0.00 0.00 74 1010.0
20260510074711 49 245 2.0 4.0 0.00 0.00 0.00 71 1010.0
20260510074209 49 245 2.0 2.0 0.00 0.00 0.00 74 1011.0
20260510073709 50 245 2.0 4.0 0.00 0.00 0.00 75 1010.0
20260510073209 50 245 0.0 1.0 0.00 0.00 0.00 80 1010.0
20260510072709 50 245 3.0 3.0 0.00 0.00 0.00 81 1010.0
20260510072210 50 245 0.0 1.0 0.00 0.00 0.00 80 1010.0
20260510071709 50 245 0.0 3.0 0.00 0.00 0.00 81 1010.0
20260510071209 50 245 0.0 1.0 0.00 0.00 0.00 84 1010.0
20260510070709 51 245 1.0 1.0 0.00 0.00 0.00 85 1010.0
20260510070209 50 245 0.0 2.0 0.00 0.00 0.00 86 1010.0
20260510065709 50 245 2.0 4.0 0.00 0.00 0.00 86 1010.0
20260510065210 50 245 3.0 3.0 0.00 0.00 0.00 88 1010.0
20260510064709 50 245 1.0 1.0 0.00 0.00 0.00 90 1009.0
20260510064209 50 245 1.0 1.0 0.00 0.00 0.00 91 1009.0
20260510063709 50 245 0.0 1.0 0.00 0.00 0.00 92 1009.0
20260510063209 51 245 0.0 0.0 0.00 0.00 0.00 93 1010.0
20260510062709 50 245 0.0 1.0 0.00 0.00 0.00 93 1010.0
20260510062209 51 245 1.0 1.0 0.00 0.00 0.00 94 1009.0
20260510061711 51 245 0.0 1.0 0.00 0.00 0.00 94 1009.0
20260510061209 51 245 0.0 1.0 0.00 0.00 0.00 95 1009.0
20260510060709 51 245 2.0 2.0 0.00 0.00 0.00 95 1009.0
20260510060209 51 245 1.0 2.0 0.00 0.00 0.00 95 1009.0
20260510055709 51 245 0.0 3.0 0.00 0.00 0.00 95 1009.0
20260510055209 51 245 0.0 1.0 0.00 0.00 0.00 96 1009.0
20260510054709 51 245 0.0 1.0 0.00 0.00 0.00 96 1009.0
20260510054209 51 245 1.0 1.0 0.00 0.00 0.00 95 1009.0
20260510053709 51 245 0.0 1.0 0.00 0.00 0.00 95 1009.0
20260510053209 51 245 0.0 1.0 0.00 0.00 0.00 95 1009.0
20260510052710 51 245 1.0 1.0 0.00 0.00 0.00 95 1009.0
20260510052209 51 245 0.0 1.0 0.00 0.00 0.00 95 1009.0
20260510051711 51 245 0.0 1.0 0.00 0.00 0.00 95 1009.0
20260510051209 51 245 1.0 1.0 0.00 0.00 0.00 95 1009.0
20260510050709 51 245 1.0 1.0 0.00 0.00 0.00 95 1008.0
20260510050209 51 245 0.0 1.0 0.00 0.00 0.00 95 1008.0
20260510045710 51 245 0.0 2.0 0.00 0.00 0.00 95 1008.0
20260510045209 51 245 1.0 1.0 0.00 0.00 0.00 95 1008.0
20260510044709 51 245 1.0 1.0 0.00 0.00 0.00 95 1008.0
20260510044209 51 245 2.0 3.0 0.00 0.00 0.00 95 1008.0
20260510043710 51 245 1.0 1.0 0.00 0.00 0.00 95 1008.0
20260510043209 51 245 0.0 3.0 0.00 0.00 0.00 95 1008.0
20260510042709 51 245 0.0 2.0 0.00 0.00 0.00 95 1008.0
20260510042210 50 245 0.0 1.0 0.00 0.00 0.00 94 1008.0
20260510041709 50 245 2.0 3.0 0.00 0.00 0.00 94 1008.0
20260510041209 50 245 0.0 0.0 0.00 0.00 0.00 94 1008.0
20260510040709 51 245 0.0 0.0 0.00 0.00 0.00 93 1007.0
20260510040210 51 245 0.0 1.0 0.00 0.00 0.19 93 1007.0
20260510035709 51 245 0.0 2.0 0.00 0.00 0.19 93 1007.0
20260510035209 51 245 0.0 1.0 0.00 0.00 0.19 93 1007.0
20260510034709 51 245 0.0 2.0 0.00 0.00 0.19 93 1007.0
20260510034210 51 245 2.0 2.0 0.00 0.00 0.19 93 1007.0
20260510033709 52 245 0.0 2.0 0.00 0.00 0.19 93 1007.0
20260510033209 52 245 1.0 2.0 0.00 0.00 0.19 93 1007.0
20260510032709 52 245 0.0 3.0 0.00 0.00 0.19 93 1007.0
20260510032209 52 245 2.0 2.0 0.00 0.00 0.19 93 1008.0
20260510031710 52 245 2.0 2.0 0.00 0.00 0.19 93 1008.0
20260510031209 52 245 1.0 2.0 0.00 0.00 0.19 93 1007.0
20260510030709 52 245 2.0 3.0 0.00 0.00 0.19 93 1007.0
20260510030209 51 245 0.0 3.0 0.00 0.00 0.19 93 1007.0
20260510025709 51 245 1.0 3.0 0.00 0.00 0.19 93 1007.0
20260510025209 51 245 0.0 2.0 0.00 0.00 0.19 93 1007.0
20260510024711 51 245 2.0 3.0 0.00 0.00 0.19 93 1007.0
20260510024210 51 245 1.0 2.0 0.00 0.00 0.19 93 1007.0
20260510023710 51 245 0.0 2.0 0.00 0.00 0.19 93 1007.0
20260510023209 52 245 1.0 2.0 0.00 0.00 0.19 92 1007.0
20260510022709 52 245 2.0 3.0 0.00 0.00 0.19 92 1007.0
20260510022209 52 245 1.0 1.0 0.00 0.00 0.19 92 1007.0
20260510021710 52 245 0.0 2.0 0.00 0.00 0.19 92 1006.0
20260510021209 52 245 0.0 3.0 0.00 0.00 0.19 92 1006.0
20260510020710 52 245 1.0 3.0 0.00 0.00 0.19 92 1006.0
20260510020209 52 245 1.0 5.0 0.00 0.00 0.19 92 1007.0
20260510015710 52 245 1.0 4.0 0.00 0.00 0.19 92 1007.0
20260510015210 52 245 1.0 7.0 0.00 0.00 0.19 92 1007.0
20260510014709 52 245 5.0 7.0 0.00 0.00 0.19 92 1007.0
20260510014210 52 245 0.0 0.0 0.00 0.00 0.19 92 1006.0
20260510013710 52 245 2.0 2.0 0.00 0.00 0.19 92 1006.0
20260510013209 52 245 1.0 2.0 0.00 0.00 0.19 92 1006.0
20260510012709 52 245 2.0 6.0 0.00 0.00 0.19 92 1006.0
20260510012210 52 245 0.0 5.0 0.00 0.00 0.19 92 1006.0
20260510011709 52 245 3.0 3.0 0.00 0.00 0.19 92 1006.0
20260510011209 52 245 3.0 5.0 0.00 0.00 0.19 92 1006.0
20260510010710 52 245 3.0 4.0 0.00 0.00 0.19 92 1006.0
20260510010209 52 245 3.0 7.0 0.00 0.00 0.19 92 1006.0
20260510005709 52 245 1.0 6.0 0.00 0.00 0.19 92 1006.0
20260510005211 52 245 2.0 2.0 0.00 0.00 0.19 92 1006.0
20260510004709 52 245 3.0 4.0 0.00 0.00 0.19 92 1006.0
20260510004209 52 245 1.0 3.0 0.00 0.00 0.19 93 1006.0
20260510003709 52 245 0.0 2.0 0.00 0.00 0.19 93 1005.0
20260510003209 52 245 0.0 2.0 0.01 0.00 0.19 93 1005.0
20260510002709 52 245 1.0 4.0 0.02 0.00 0.19 93 1005.0
20260510002209 52 245 0.0 4.0 0.03 0.00 0.19 93 1005.0
20260510001709 52 245 3.0 5.0 0.04 0.00 0.19 93 1005.0
20260510001209 52 245 3.0 5.0 0.05 0.00 0.19 93 1005.0
20260510000709 52 245 3.0 3.0 0.07 0.00 0.19 94 1005.0
20260510000211 52 245 0.0 2.0 0.08 0.00 0.19 94 1006.0
20260509235709 52 245 2.0 2.0 0.12 0.00 0.19 93 1006.0
20260509235209 52 245 2.0 2.0 0.19 0.00 0.19 93 1005.0
20260509234709 52 245 3.0 3.0 0.19 0.00 0.19 93 1005.0
20260509234209 52 245 2.0 2.0 0.19 0.00 0.19 93 1005.0
20260509233709 51 245 1.0 1.0 0.19 0.00 0.19 92 1005.0
20260509233209 51 245 3.0 4.0 0.18 0.00 0.18 92 1006.0
20260509232709 52 245 4.0 6.0 0.17 0.00 0.17 92 1006.0
20260509232209 52 245 5.0 6.0 0.16 0.00 0.16 91 1006.0
20260509231709 52 245 3.0 6.0 0.15 0.00 0.15 91 1006.0
20260509231209 52 245 6.0 6.0 0.13 0.00 0.14 90 1006.0
20260509230709 52 245 2.0 10.0 0.12 0.00 0.12 89 1006.0
20260509230209 53 245 9.0 11.0 0.11 0.00 0.11 87 1006.0
20260509225709 56 245 10.0 13.0 0.03 0.00 0.04 80 1007.0
20260509225209 59 245 3.0 3.0 0.00 0.00 0.00 77 1006.0
20260509224710 60 245 5.0 6.0 0.00 0.00 0.00 75 1004.0
20260509224209 61 245 3.0 4.0 0.00 0.00 0.00 73 1004.0
20260509223709 61 245 3.0 4.0 0.00 0.00 0.00 69 1004.0
20260509223209 61 245 1.0 2.0 0.00 0.00 0.00 67 1004.0
20260509222709 62 245 2.0 4.0 0.00 0.00 0.00 66 1003.0
20260509222209 62 245 2.0 3.0 0.00 0.00 0.00 66 1003.0
20260509221709 62 245 1.0 2.0 0.00 0.00 0.00 66 1003.0
20260509221210 62 245 2.0 3.0 0.00 0.00 0.00 65 1003.0
20260509220709 63 245 1.0 5.0 0.00 0.00 0.00 65 1003.0
20260509220209 63 245 2.0 4.0 0.00 0.00 0.00 65 1003.0
20260509215709 63 245 2.0 5.0 0.00 0.00 0.00 64 1003.0
20260509215210 63 245 3.0 5.0 0.00 0.00 0.00 63 1003.0
20260509214709 63 245 3.0 4.0 0.00 0.00 0.00 63 1004.0
20260509214209 64 245 2.0 4.0 0.00 0.00 0.00 63 1004.0
20260509213709 64 245 2.0 2.0 0.00 0.00 0.00 62 1004.0
20260509213209 64 245 0.0 1.0 0.00 0.00 0.00 63 1004.0
20260509212711 63 245 1.0 2.0 0.00 0.00 0.00 63 1004.0
20260509212209 63 245 1.0 4.0 0.00 0.00 0.00 64 1004.0
20260509211709 63 245 2.0 4.0 0.00 0.00 0.00 64 1004.0
20260509211210 63 245 2.0 4.0 0.00 0.00 0.00 64 1004.0
20260509210710 63 245 3.0 5.0 0.00 0.00 0.00 64 1004.0
20260509210209 63 245 3.0 3.0 0.00 0.00 0.00 63 1004.0
20260509205709 63 245 2.0 5.0 0.00 0.00 0.00 62 1004.0
20260509205209 64 245 2.0 4.0 0.00 0.00 0.00 63 1004.0
20260509204709 63 245 4.0 6.0 0.00 0.00 0.00 63 1004.0
20260509204209 63 245 2.0 7.0 0.00 0.00 0.00 63 1004.0
20260509203710 63 245 2.0 5.0 0.00 0.00 0.00 63 1004.0
20260509203209 63 245 2.0 4.0 0.00 0.00 0.00 63 1004.0
20260509202709 63 245 2.0 3.0 0.00 0.00 0.00 63 1004.0
20260509202209 64 245 2.0 2.0 0.00 0.00 0.00 62 1004.0
20260509201709 64 245 3.0 6.0 0.00 0.00 0.00 61 1004.0
20260509201209 65 245 3.0 5.0 0.00 0.00 0.00 60 1004.0
20260509200709 66 245 6.0 6.0 0.00 0.00 0.00 59 1004.0
20260509200210 67 245 6.0 7.0 0.00 0.00 0.00 57 1004.0
20260509195709 67 245 7.0 7.0 0.00 0.00 0.00 57 1004.0
20260509195211 67 245 4.0 6.0 0.00 0.00 0.00 58 1004.0
20260509194711 67 245 3.0 9.0 0.00 0.00 0.00 57 1004.0
20260509194209 67 245 5.0 5.0 0.00 0.00 0.00 58 1004.0
20260509193710 66 245 6.0 8.0 0.00 0.00 0.00 57 1004.0
20260509193210 67 245 5.0 7.0 0.00 0.00 0.00 56 1004.0
20260509192710 66 245 6.0 10.0 0.00 0.00 0.00 56 1005.0
20260509192209 68 245 4.0 10.0 0.00 0.00 0.00 55 1005.0
20260509191709 68 245 2.0 8.0 0.00 0.00 0.00 56 1005.0
20260509191210 67 245 4.0 7.0 0.00 0.00 0.00 58 1005.0
20260509190710 66 245 6.0 7.0 0.00 0.00 0.00 59 1005.0
20260509190211 66 245 9.0 9.0 0.00 0.00 0.00 59 1005.0
20260509185710 66 245 2.0 9.0 0.00 0.00 0.00 60 1005.0
20260509185209 66 245 2.0 2.0 0.00 0.00 0.00 60 1005.0
20260509184711 66 245 4.0 10.0 0.00 0.00 0.00 59 1005.0
20260509184209 65 245 4.0 6.0 0.00 0.00 0.00 60 1005.0
20260509183710 65 245 5.0 9.0 0.00 0.00 0.00 61 1005.0
20260509183210 66 245 2.0 7.0 0.00 0.00 0.00 62 1005.0
20260509182711 66 245 8.0 9.0 0.00 0.00 0.00 60 1005.0
20260509182210 66 245 7.0 8.0 0.00 0.00 0.00 61 1005.0
20260509181709 66 245 2.0 8.0 0.00 0.00 0.00 63 1005.0
20260509181210 65 245 4.0 9.0 0.00 0.00 0.00 62 1005.0
20260509180709 65 245 3.0 11.0 0.00 0.00 0.00 61 1005.0
20260509180209 66 245 8.0 8.0 0.00 0.00 0.00 62 1005.0
20260509175713 65 245 4.0 9.0 0.00 0.00 0.00 62 1006.0
20260509175210 65 245 5.0 12.0 0.00 0.00 0.00 62 1006.0
20260509174710 64 245 3.0 11.0 0.00 0.00 0.00 63 1006.0
20260509174209 65 245 5.0 13.0 0.00 0.00 0.00 62 1006.0
20260509173710 64 245 4.0 6.0 0.00 0.00 0.00 63 1006.0
20260509173210 64 245 3.0 6.0 0.00 0.00 0.00 63 1006.0
20260509172709 64 245 3.0 5.0 0.00 0.00 0.00 63 1006.0
20260509172210 65 245 4.0 7.0 0.00 0.00 0.00 62 1006.0
20260509171709 65 245 4.0 8.0 0.00 0.00 0.00 63 1006.0
20260509171209 64 245 3.0 5.0 0.00 0.00 0.00 64 1006.0
20260509170709 64 245 2.0 6.0 0.00 0.00 0.00 64 1006.0
20260509170211 63 245 6.0 8.0 0.00 0.00 0.00 64 1006.0
20260509165709 65 245 6.0 6.0 0.00 0.00 0.00 60 1006.0